AMQ623 EPWR-DTMB

Flight info

Callsign AMQ623
Flight time N/A
Altitude 36000
Route ULGIL T707 TOMTI DCT PISAM DCT ARNOS P125 ROSKA DCT GIKIN L865 TAQ M738 TUNEX UG737 CBN UG727 MON UN157 GIPRA GIPRA1R
Aircraft A320/M-SDE3FGHIRWY/LB1

Departure

Time N/A
Airport Copernicus Wrocław Airport (EPWR)

Arrival

Time 2026-05-05 20:12
Airport Monastir Habib Bourguiba International Airport (DTMB)
Time Latitude Longitude Altitude Speed Heading
2026-05-05 18:01 49.20331 15.37364 35731 ft 435 kts 181°
2026-05-05 18:01 49.14276 15.37621 35727 ft 435 kts 181°
2026-05-05 18:02 49.08222 15.37884 35723 ft 435 kts 181°
2026-05-05 18:02 49.02205 15.38149 35720 ft 435 kts 181°
2026-05-05 18:03 48.96152 15.38423 35710 ft 435 kts 181°
2026-05-05 18:03 48.90138 15.38011 35709 ft 431 kts 194°
2026-05-05 18:04 48.84576 15.34882 35710 ft 426 kts 210°
2026-05-05 18:04 48.79351 15.30618 35705 ft 427 kts 210°
2026-05-05 18:05 48.74140 15.26406 35708 ft 427 kts 210°
2026-05-05 18:05 48.68884 15.22180 35714 ft 428 kts 209°
2026-05-05 18:06 48.63626 15.17960 35718 ft 428 kts 209°
2026-05-05 18:06 48.58404 15.13760 35722 ft 428 kts 209°
2026-05-05 18:07 48.53145 15.09545 35727 ft 428 kts 210°
2026-05-05 18:07 48.47886 15.05330 35733 ft 428 kts 210°
2026-05-05 18:08 48.42618 15.01146 35731 ft 428 kts 208°
2026-05-05 18:08 48.37284 14.97166 35735 ft 428 kts 207°
2026-05-05 18:09 48.31954 14.93326 35734 ft 427 kts 207°
2026-05-05 18:09 48.26599 14.89456 35734 ft 427 kts 207°
2026-05-05 18:10 48.21258 14.85542 35735 ft 427 kts 208°
2026-05-05 18:10 48.15923 14.81638 35734 ft 426 kts 208°
2026-05-05 18:11 48.10589 14.77753 35739 ft 426 kts 208°
2026-05-05 18:11 48.05288 14.73906 35742 ft 427 kts 208°
2026-05-05 18:12 47.99946 14.70036 35748 ft 427 kts 208°
2026-05-05 18:12 47.94600 14.66163 35755 ft 427 kts 208°
2026-05-05 18:13 47.89291 14.62320 35767 ft 427 kts 208°
2026-05-05 18:13 47.83946 14.58477 35774 ft 427 kts 208°
2026-05-05 18:14 47.78599 14.54640 35784 ft 427 kts 208°
2026-05-05 18:14 47.73248 14.50801 35800 ft 427 kts 208°
2026-05-05 18:15 47.67899 14.46983 35810 ft 427 kts 208°
2026-05-05 18:15 47.62585 14.43199 35825 ft 427 kts 208°
2026-05-05 18:16 47.57229 14.39395 35832 ft 427 kts 208°
2026-05-05 18:16 47.51875 14.35598 35846 ft 426 kts 208°
2026-05-05 18:17 47.46528 14.31813 35856 ft 426 kts 208°
2026-05-05 18:17 47.41219 14.28058 35867 ft 426 kts 208°
2026-05-05 18:18 47.35881 14.24286 35874 ft 425 kts 208°
2026-05-05 18:18 47.30538 14.20524 35871 ft 425 kts 208°
2026-05-05 18:19 47.25198 14.16777 35876 ft 425 kts 207°
2026-05-05 18:19 47.19892 14.13058 35881 ft 425 kts 208°
2026-05-05 18:20 47.14545 14.09313 35892 ft 426 kts 207°
2026-05-05 18:20 47.09186 14.05573 35899 ft 427 kts 207°
2026-05-05 18:21 47.03816 14.01843 35911 ft 427 kts 207°
2026-05-05 18:21 46.98475 13.98141 35921 ft 427 kts 207°
2026-05-05 18:22 46.93101 13.94416 35939 ft 427 kts 207°
2026-05-05 18:22 46.87723 13.90703 35945 ft 427 kts 207°
2026-05-05 18:23 46.82353 13.87004 35959 ft 427 kts 207°
2026-05-05 18:23 46.76989 13.83320 35962 ft 426 kts 207°
2026-05-05 18:24 46.71665 13.79659 35975 ft 425 kts 207°
2026-05-05 18:24 46.66321 13.76000 35991 ft 424 kts 207°
2026-05-05 18:25 46.60982 13.72362 35994 ft 423 kts 207°
2026-05-05 18:25 46.55662 13.68738 36005 ft 422 kts 207°
2026-05-05 18:26 46.50394 13.65139 36010 ft 421 kts 207°
2026-05-05 18:26 46.45092 13.61542 36009 ft 420 kts 207°
2026-05-05 18:27 46.39800 13.57960 36018 ft 420 kts 207°
2026-05-05 18:27 46.34512 13.54373 36022 ft 420 kts 207°
2026-05-05 18:28 46.26608 13.49043 36016 ft 420 kts 207°
2026-05-05 18:28 46.21302 13.45482 36022 ft 420 kts 207°
2026-05-05 18:29 46.15997 13.41931 36011 ft 420 kts 207°
2026-05-05 18:29 46.10686 13.38377 36005 ft 421 kts 207°
2026-05-05 18:30 46.05411 13.34845 36004 ft 421 kts 207°
2026-05-05 18:30 46.00095 13.31292 36007 ft 421 kts 207°
2026-05-05 18:31 45.94779 13.27757 36002 ft 421 kts 207°
2026-05-05 18:31 45.89454 13.24228 36003 ft 421 kts 207°
2026-05-05 18:32 45.84165 13.20730 36003 ft 422 kts 207°
2026-05-05 18:32 45.78835 13.17201 36008 ft 422 kts 208°
2026-05-05 18:33 45.73505 13.13679 36011 ft 422 kts 208°
2026-05-05 18:33 45.68167 13.10168 36009 ft 422 kts 208°
2026-05-05 18:34 45.62868 13.06689 36007 ft 422 kts 208°
2026-05-05 18:34 45.57534 13.03197 36003 ft 422 kts 208°
2026-05-05 18:35 45.52206 12.99713 36002 ft 421 kts 208°
2026-05-05 18:35 45.47783 12.96821 36003 ft 421 kts 208°
2026-05-05 18:36 45.42459 12.93349 36000 ft 421 kts 209°
2026-05-05 18:36 45.36277 12.89332 35998 ft 420 kts 209°
2026-05-05 18:37 45.30892 12.86075 36002 ft 424 kts 201°
2026-05-05 18:37 45.26085 12.84491 36004 ft 427 kts 198°
2026-05-05 18:38 45.20282 12.82673 36005 ft 427 kts 198°
2026-05-05 18:38 45.13549 12.80555 36002 ft 426 kts 198°
2026-05-05 18:39 45.08707 12.79027 35996 ft 426 kts 198°
2026-05-05 18:39 45.02966 12.77230 35998 ft 425 kts 198°
2026-05-05 18:40 44.97187 12.75421 35991 ft 425 kts 199°
2026-05-05 18:40 44.91418 12.73613 35987 ft 425 kts 199°
2026-05-05 18:41 44.85646 12.71810 35985 ft 425 kts 199°
2026-05-05 18:41 44.79910 12.70039 35988 ft 425 kts 199°
2026-05-05 18:42 44.74137 12.68258 35983 ft 425 kts 199°
2026-05-05 18:42 44.68364 12.66469 35988 ft 425 kts 199°
2026-05-05 18:43 44.62592 12.64683 35991 ft 425 kts 199°
2026-05-05 18:43 44.56862 12.62920 35990 ft 425 kts 199°
2026-05-05 18:44 44.51091 12.61146 35990 ft 424 kts 199°
2026-05-05 18:44 44.45327 12.59379 35990 ft 424 kts 199°
2026-05-05 18:45 44.39565 12.57620 35989 ft 423 kts 199°
2026-05-05 18:45 44.33814 12.55861 35990 ft 423 kts 199°
2026-05-05 18:46 44.28100 12.54116 35989 ft 423 kts 199°
2026-05-05 18:46 44.22351 12.52360 35989 ft 423 kts 199°
2026-05-05 18:47 44.16603 12.50612 35986 ft 423 kts 199°
2026-05-05 18:47 44.10855 12.48867 36010 ft 423 kts 199°
2026-05-05 18:48 44.05147 12.47142 36011 ft 422 kts 199°
2026-05-05 18:48 43.99401 12.45412 36001 ft 423 kts 199°
2026-05-05 18:49 43.93653 12.43681 36003 ft 423 kts 199°
2026-05-05 18:49 43.87899 12.41947 35997 ft 423 kts 199°
2026-05-05 18:50 43.82183 12.40233 35998 ft 423 kts 199°
2026-05-05 18:50 43.76423 12.38511 35999 ft 423 kts 199°
2026-05-05 18:51 43.70668 12.36788 36001 ft 424 kts 199°
2026-05-05 18:51 43.64904 12.35065 36011 ft 424 kts 199°
2026-05-05 18:52 43.59138 12.33351 36022 ft 424 kts 199°
2026-05-05 18:52 43.53367 12.31641 36031 ft 424 kts 199°
2026-05-05 18:53 43.47634 12.29939 36032 ft 424 kts 199°
2026-05-05 18:53 43.41871 12.28233 36034 ft 424 kts 199°
2026-05-05 18:54 43.36101 12.26524 36036 ft 424 kts 199°
2026-05-05 18:54 43.30334 12.24822 36038 ft 424 kts 199°
2026-05-05 18:55 43.24619 12.23142 36045 ft 423 kts 199°
2026-05-05 18:55 43.18857 12.21454 36044 ft 423 kts 199°
2026-05-05 18:56 43.13108 12.19768 36046 ft 422 kts 199°
2026-05-05 18:56 43.07369 12.18090 36048 ft 422 kts 199°
2026-05-05 18:57 43.01681 12.16422 36049 ft 421 kts 199°
2026-05-05 18:57 42.95962 12.14742 36052 ft 420 kts 199°
2026-05-05 18:58 42.90243 12.13086 36052 ft 420 kts 199°
2026-05-05 18:58 42.84535 12.11435 36054 ft 419 kts 199°
2026-05-05 18:59 42.78876 12.09791 36056 ft 418 kts 199°
2026-05-05 18:59 42.73183 12.08140 36056 ft 418 kts 199°
2026-05-05 19:00 42.67496 12.06498 36056 ft 418 kts 199°
2026-05-05 19:00 42.61888 12.04586 36060 ft 410 kts 208°
2026-05-05 19:01 42.56923 12.00999 36066 ft 403 kts 216°
2026-05-05 19:01 42.52113 11.97199 36069 ft 403 kts 216°
2026-05-05 19:02 42.47262 11.93395 36064 ft 402 kts 216°
2026-05-05 19:02 42.42418 11.89605 36063 ft 402 kts 216°
2026-05-05 19:03 42.38403 11.86457 36063 ft 401 kts 216°
2026-05-05 19:03 42.32783 11.82066 36064 ft 401 kts 216°
2026-05-05 19:04 42.27624 11.78045 36062 ft 401 kts 215°
2026-05-05 19:04 42.22634 11.74625 36053 ft 409 kts 204°
2026-05-05 19:05 42.16901 11.73593 36047 ft 428 kts 184°
2026-05-05 19:05 42.10987 11.74073 36042 ft 429 kts 184°
2026-05-05 19:06 42.05024 11.74527 36035 ft 429 kts 184°
2026-05-05 19:06 41.99054 11.74967 36028 ft 430 kts 184°
2026-05-05 19:07 41.93070 11.75399 36046 ft 431 kts 184°
2026-05-05 19:07 41.87121 11.75844 36031 ft 431 kts 184°
2026-05-05 19:08 41.81122 11.76305 36032 ft 432 kts 184°
2026-05-05 19:08 41.75115 11.76762 36026 ft 433 kts 184°
2026-05-05 19:09 41.69092 11.77209 36025 ft 434 kts 184°
2026-05-05 19:09 41.63099 11.77656 36025 ft 434 kts 184°
2026-05-05 19:10 41.57060 11.78102 36030 ft 435 kts 184°
2026-05-05 19:10 41.51009 11.78545 36030 ft 436 kts 184°
2026-05-05 19:11 41.44956 11.78984 36030 ft 436 kts 184°
2026-05-05 19:11 41.38936 11.79430 36029 ft 436 kts 183°
2026-05-05 19:12 41.32870 11.79881 36029 ft 437 kts 183°
2026-05-05 19:12 41.26796 11.80334 36031 ft 437 kts 183°
2026-05-05 19:13 41.20719 11.80778 36033 ft 437 kts 183°
2026-05-05 19:13 41.14642 11.81217 36036 ft 438 kts 183°
2026-05-05 19:14 41.08600 11.81657 36038 ft 438 kts 183°
2026-05-05 19:14 41.02517 11.82102 36040 ft 438 kts 183°
2026-05-05 19:15 40.96436 11.82542 36041 ft 438 kts 182°
2026-05-05 19:15 40.90353 11.82981 36048 ft 438 kts 182°
2026-05-05 19:16 40.84304 11.83409 36047 ft 438 kts 182°
2026-05-05 19:16 40.78222 11.83786 36044 ft 438 kts 183°
2026-05-05 19:17 40.72139 11.84121 36046 ft 438 kts 183°
2026-05-05 19:17 40.66050 11.84469 36047 ft 438 kts 183°
2026-05-05 19:18 40.59962 11.84829 36052 ft 438 kts 182°
2026-05-05 19:18 40.53913 11.85190 36053 ft 438 kts 182°
2026-05-05 19:19 40.47825 11.85553 36051 ft 438 kts 182°
2026-05-05 19:19 40.41733 11.85917 36055 ft 438 kts 182°
2026-05-05 19:20 40.35646 11.86274 36056 ft 438 kts 182°
2026-05-05 19:20 40.29599 11.86630 36055 ft 438 kts 182°
2026-05-05 19:21 40.23512 11.86988 36055 ft 438 kts 182°
2026-05-05 19:21 40.17424 11.87344 36054 ft 438 kts 182°
2026-05-05 19:22 40.11341 11.87701 36058 ft 438 kts 182°
2026-05-05 19:22 40.05292 11.88049 36058 ft 438 kts 182°
2026-05-05 19:23 39.99205 11.88404 36057 ft 438 kts 182°
2026-05-05 19:23 39.93116 11.88752 36058 ft 438 kts 182°
2026-05-05 19:24 39.87041 11.88931 36057 ft 434 kts 189°
2026-05-05 19:24 39.81189 11.87589 36058 ft 429 kts 195°
2026-05-05 19:25 39.75335 11.86054 36057 ft 429 kts 195°
2026-05-05 19:25 39.69480 11.84516 36055 ft 429 kts 195°
2026-05-05 19:26 39.63622 11.82971 36059 ft 429 kts 195°
2026-05-05 19:26 39.57764 11.81439 36056 ft 430 kts 195°
2026-05-05 19:27 39.51943 11.79924 36052 ft 430 kts 195°
2026-05-05 19:27 39.46079 11.78403 36052 ft 430 kts 195°
2026-05-05 19:28 39.40219 11.76873 36055 ft 430 kts 195°
2026-05-05 19:28 39.34360 11.75352 36054 ft 429 kts 195°
2026-05-05 19:29 39.28542 11.73844 36057 ft 429 kts 195°
2026-05-05 19:29 39.22685 11.72334 36055 ft 429 kts 195°
2026-05-05 19:30 39.16833 11.70821 36057 ft 429 kts 195°
2026-05-05 19:30 39.10990 11.69310 36056 ft 428 kts 195°
2026-05-05 19:31 39.05189 11.67818 36055 ft 428 kts 195°
2026-05-05 19:31 38.99349 11.66318 36049 ft 428 kts 195°
2026-05-05 19:32 38.93519 11.64817 36048 ft 428 kts 195°
2026-05-05 19:32 38.87722 11.63328 36048 ft 428 kts 195°
2026-05-05 19:33 38.81881 11.61850 36042 ft 428 kts 195°
2026-05-05 19:33 38.76044 11.60379 36042 ft 428 kts 195°
2026-05-05 19:34 38.70208 11.58886 36041 ft 428 kts 195°
2026-05-05 19:35 38.61454 11.56643 36036 ft 428 kts 195°
2026-05-05 19:35 38.55651 11.55178 36035 ft 428 kts 194°
2026-05-05 19:36 38.49807 11.53704 36034 ft 428 kts 194°
2026-05-05 19:36 38.43959 11.52228 36030 ft 429 kts 194°
2026-05-05 19:37 38.38107 11.50743 36030 ft 429 kts 194°
2026-05-05 19:37 38.32291 11.49272 36028 ft 429 kts 194°
2026-05-05 19:38 38.26427 11.47810 36026 ft 430 kts 194°
2026-05-05 19:38 38.20556 11.46343 36022 ft 430 kts 194°
2026-05-05 19:39 38.14681 11.44870 36022 ft 431 kts 194°
2026-05-05 19:39 38.08798 11.43398 36025 ft 431 kts 194°
2026-05-05 19:40 38.02951 11.41929 36021 ft 431 kts 194°
2026-05-05 19:40 37.97062 11.40452 36024 ft 432 kts 194°
2026-05-05 19:41 37.91162 11.38968 36028 ft 432 kts 195°
2026-05-05 19:41 37.85306 11.37257 36027 ft 431 kts 197°
2026-05-05 19:42 37.79517 11.35453 36021 ft 431 kts 197°
2026-05-05 19:42 37.73676 11.33677 36028 ft 432 kts 196°
2026-05-05 19:43 37.67823 11.31936 36027 ft 432 kts 196°
2026-05-05 19:43 37.61960 11.30204 36024 ft 433 kts 196°
2026-05-05 19:44 37.56099 11.28478 36021 ft 433 kts 196°
2026-05-05 19:44 37.50276 11.26760 36024 ft 433 kts 196°
2026-05-05 19:45 37.44406 11.25026 36023 ft 433 kts 196°
2026-05-05 19:45 37.38531 11.23289 36014 ft 433 kts 196°
2026-05-05 19:45 37.35605 11.22424 35511 ft 432 kts 196°
2026-05-05 19:46 37.32680 11.21559 34831 ft 433 kts 196°
2026-05-05 19:46 37.29747 11.20692 34149 ft 434 kts 196°
2026-05-05 19:46 37.26845 11.19833 33371 ft 435 kts 195°
2026-05-05 19:46 37.23894 11.18961 32551 ft 437 kts 195°
2026-05-05 19:47 37.20930 11.18087 31716 ft 438 kts 195°
2026-05-05 19:47 37.17960 11.17213 30784 ft 436 kts 195°
2026-05-05 19:47 37.15007 11.16348 29494 ft 434 kts 195°
2026-05-05 19:47 37.12070 11.15489 28631 ft 432 kts 195°
2026-05-05 19:48 37.09159 11.14640 27989 ft 427 kts 195°
2026-05-05 19:48 37.06277 11.13800 27356 ft 423 kts 195°
2026-05-05 19:48 37.03463 11.12978 26734 ft 420 kts 195°
2026-05-05 19:48 37.01546 11.12418 26323 ft 417 kts 195°
2026-05-05 19:49 36.97826 11.11329 25530 ft 412 kts 195°
2026-05-05 19:49 36.92545 11.09791 24443 ft 406 kts 195°
2026-05-05 19:49 36.89809 11.08994 24058 ft 398 kts 195°
2026-05-05 19:50 36.87157 11.08209 23948 ft 385 kts 196°
2026-05-05 19:50 36.84591 11.07425 23842 ft 374 kts 197°
2026-05-05 19:50 36.82104 11.06655 23712 ft 363 kts 197°
2026-05-05 19:50 36.79723 11.05916 23602 ft 352 kts 197°
2026-05-05 19:51 36.77383 11.05193 23469 ft 341 kts 197°
2026-05-05 19:51 36.75116 11.04501 23333 ft 330 kts 197°
2026-05-05 19:51 36.72916 11.03831 23196 ft 321 kts 197°
2026-05-05 19:51 36.70780 11.03176 23062 ft 311 kts 197°
2026-05-05 19:52 36.68734 11.02439 22925 ft 301 kts 202°
2026-05-05 19:52 36.66808 11.01527 22788 ft 291 kts 206°
2026-05-05 19:52 36.64978 11.00563 22405 ft 283 kts 207°
2026-05-05 19:52 36.63212 10.99606 21914 ft 279 kts 207°
2026-05-05 19:53 36.61441 10.98655 21403 ft 276 kts 206°
2026-05-05 19:53 36.59685 10.97727 20911 ft 273 kts 206°
2026-05-05 19:53 36.57921 10.96807 20089 ft 282 kts 206°
2026-05-05 19:53 36.56064 10.95853 19457 ft 292 kts 206°
2026-05-05 19:54 36.54185 10.94903 19108 ft 292 kts 205°
2026-05-05 19:54 36.52300 10.93959 18780 ft 292 kts 205°
2026-05-05 19:54 36.50443 10.93033 18481 ft 291 kts 205°
2026-05-05 19:54 36.48567 10.92097 18102 ft 292 kts 205°
2026-05-05 19:55 36.46677 10.91156 17636 ft 295 kts 205°
2026-05-05 19:55 36.44764 10.90202 17187 ft 297 kts 205°
2026-05-05 19:55 36.42850 10.89246 16817 ft 296 kts 205°
2026-05-05 19:55 36.40942 10.88293 16479 ft 295 kts 205°
2026-05-05 19:56 36.39041 10.87345 16127 ft 293 kts 205°
2026-05-05 19:56 36.37161 10.86408 15555 ft 290 kts 205°
2026-05-05 19:56 36.35294 10.85477 14954 ft 289 kts 205°
2026-05-05 19:56 36.33428 10.84546 14529 ft 289 kts 205°
2026-05-05 19:57 36.31592 10.83629 14221 ft 288 kts 205°
2026-05-05 19:57 36.30337 10.83004 14016 ft 287 kts 205°
2026-05-05 19:57 36.27890 10.81786 13568 ft 286 kts 204°
2026-05-05 19:57 36.26046 10.80870 13211 ft 285 kts 204°
2026-05-05 19:58 36.24214 10.79959 12842 ft 282 kts 204°
2026-05-05 19:58 36.22400 10.79057 12247 ft 280 kts 204°
2026-05-05 19:58 36.20595 10.78160 11642 ft 279 kts 204°
2026-05-05 19:58 36.18794 10.77264 11202 ft 279 kts 204°
2026-05-05 19:59 36.16996 10.76371 10899 ft 278 kts 204°
2026-05-05 19:59 36.15235 10.75499 10530 ft 274 kts 204°
2026-05-05 19:59 36.13467 10.74623 9987 ft 275 kts 203°
2026-05-05 19:59 36.11696 10.73746 9680 ft 273 kts 203°
2026-05-05 20:00 36.09937 10.72875 9396 ft 270 kts 203°
2026-05-05 20:00 36.08220 10.72026 9268 ft 261 kts 203°
2026-05-05 20:00 36.06567 10.71209 9041 ft 251 kts 203°
2026-05-05 20:00 36.04963 10.70416 8584 ft 246 kts 203°
2026-05-05 20:01 36.03379 10.69632 8083 ft 245 kts 203°
2026-05-05 20:01 36.01821 10.68860 7577 ft 244 kts 203°
2026-05-05 20:01 36.00248 10.68081 7060 ft 244 kts 202°
2026-05-05 20:01 35.98677 10.67304 6549 ft 243 kts 202°
2026-05-05 20:02 35.97106 10.66528 6019 ft 243 kts 202°
2026-05-05 20:02 35.95534 10.65753 5602 ft 243 kts 202°
2026-05-05 20:02 35.93970 10.64983 5356 ft 240 kts 202°
2026-05-05 20:02 35.92450 10.64237 5196 ft 232 kts 202°
2026-05-05 20:03 35.90959 10.63504 4931 ft 229 kts 202°
2026-05-05 20:03 35.89501 10.62785 4642 ft 228 kts 201°
2026-05-05 20:03 35.88035 10.62061 4356 ft 226 kts 201°
2026-05-05 20:03 35.86602 10.61355 4214 ft 218 kts 201°
2026-05-05 20:04 35.85211 10.60669 3979 ft 214 kts 201°
2026-05-05 20:04 35.83841 10.59994 3679 ft 210 kts 200°
2026-05-05 20:04 35.82490 10.59327 3248 ft 208 kts 200°
2026-05-05 20:04 35.81157 10.58667 2870 ft 203 kts 200°
2026-05-05 20:05 35.79895 10.58043 2747 ft 186 kts 200°
2026-05-05 20:05 35.78741 10.57475 2484 ft 178 kts 199°
2026-05-05 20:05 35.77584 10.56910 2114 ft 176 kts 199°
2026-05-05 20:05 35.76499 10.56380 1948 ft 162 kts 198°
2026-05-05 20:06 35.75514 10.55894 1838 ft 142 kts 197°
2026-05-05 20:06 35.74640 10.55463 1560 ft 132 kts 196°
2026-05-05 20:06 35.73786 10.55047 1165 ft 132 kts 197°
2026-05-05 20:06 35.72924 10.54627 837 ft 134 kts 197°
2026-05-05 20:07 35.72004 10.54421 1003 ft 136 kts 167°
2026-05-05 20:07 35.71248 10.55024 1416 ft 131 kts 123°
2026-05-05 20:07 35.71132 10.56099 1794 ft 135 kts 76°
2026-05-05 20:07 35.71470 10.57184 2145 ft 135 kts 81°
2026-05-05 20:08 35.71703 10.58323 2306 ft 141 kts 78°
2026-05-05 20:08 35.71965 10.59472 2243 ft 139 kts 79°
2026-05-05 20:08 35.72233 10.60619 2138 ft 139 kts 77°
2026-05-05 20:08 35.72504 10.61757 1990 ft 138 kts 78°
2026-05-05 20:09 35.72772 10.62871 1824 ft 135 kts 78°
2026-05-05 20:09 35.73037 10.63974 1658 ft 134 kts 78°
2026-05-05 20:09 35.73303 10.65080 1471 ft 135 kts 79°
2026-05-05 20:09 35.73566 10.66175 1299 ft 136 kts 77°
2026-05-05 20:10 35.73833 10.67282 1122 ft 133 kts 77°
2026-05-05 20:10 35.74097 10.68377 941 ft 134 kts 76°
2026-05-05 20:10 35.74360 10.69472 769 ft 133 kts 76°
2026-05-05 20:10 35.74620 10.70552 597 ft 131 kts 76°
2026-05-05 20:11 35.74877 10.71619 430 ft 127 kts 79°
2026-05-05 20:11 35.75127 10.72661 260 ft 127 kts 80°
2026-05-05 20:11 35.75372 10.73701 71 ft 126 kts 79°
2026-05-05 20:11 35.75602 10.74665 13 ft 101 kts 76°
2026-05-05 20:12 35.75751 10.75289 13 ft 51 kts 76°
2026-05-05 20:12 35.75812 10.75540 12 ft 23 kts 73°
2026-05-05 20:12 35.75863 10.75742 10 ft 26 kts 72°
2026-05-05 20:12 35.75915 10.75956 10 ft 27 kts 72°
2026-05-05 20:13 35.75974 10.76195 12 ft 19 kts 67°
2026-05-05 20:13 35.76041 10.76237 11 ft 2 kts 354°
2026-05-05 20:13 35.76067 10.76234 12 ft 5 kts 354°
2026-05-05 20:13 35.76114 10.76187 11 ft 14 kts 284°
2026-05-05 20:14 35.76107 10.76042 10 ft 16 kts 260°
2026-05-05 20:14 35.76159 10.75970 10 ft 10 kts 342°
2026-05-05 20:14 35.76202 10.75943 10 ft 0 kts 345°